Regional Weather Roundup
Issued by NWS

Home | Current Version | Previous Version | Text Only | Print | Product List | Glossary On
Versions: 1 2 3 4 5 6 7 8 9 10 11 12 13 14 15 16 17 18 19 20 21 22 23 24 25 26 27 28 29 30 31 32 33 34 35 36 37 38 39 40 41 42 43 44 45 46 47 48 49 50
000
ASMX46 KSGX 291311
RWRMX

MEXICAN WEATHER ROUNDUP
NATIONAL WEATHER SERVICE SAN DIEGO CA
600 AM PDT SAT AUG 29 2015

BAJA CALIFORNIA

CITY           SKY/WX    TMP DP  RH WIND       PRES   REMARKS
ENSENADA NW      N/A     71  32  23 NW2       29.84R
LORETO         PTCLDY    90  90 100 CALM      29.78  HX 129
TIJUANA        CLEAR     70  66  88 CALM      29.89R

NORTHWESTERN MEXICO

CITY           SKY/WX    TMP DP  RH WIND       PRES   REMARKS
CHIHUAHUA      MOCLDY    63  50  63 CALM      30.17
HERMOSILLO     PTCLDY    86  72  62 SE3       29.86R
JUAREZ         MOCLDY    70  59  68 NE12      30.10

NORTHEASTERN MEXICO

CITY           SKY/WX    TMP DP  RH WIND       PRES   REMARKS
MATAMOROS      SUNNY     72  68  88 CALM      30.01
MONCLOVA       PTCLDY    79  64  61 CALM      30.02S
MONTERREY      MOCLDY    73  66  78 CALM      30.02R
NUEVO LAREDO   CLEAR     73  66  78 CALM      30.00
PIEDRAS NEGRAS CLEAR     73  66  78 CALM      30.04R
REYNOSA        PTCLDY    70  64  83 NE2       29.99
SALTILLO       CLEAR     59  43  55 CALM      30.22R
TORREON        PTCLDY    68  41  37 CALM      30.12R
VICTORIA       CLEAR     70  70 100 SW3       30.01

WESTERN MEXICO

CITY           SKY/WX    TMP DP  RH WIND       PRES   REMARKS
AGUASCALIENTES CLEAR     50  45  81 NE6       30.30
DURANGO        CLEAR     48  39  71 SW3       30.28
GUADALAJARA    CLEAR     57  55  94 CALM      30.21
MAZATLAN       MOCLDY    79  75  89 N9        29.84R
PTO. VALLARTA  MOCLDY    81  79  94 CALM      29.87R
ZACATECAS      CLEAR     46  37  71 S6        30.31R

CENTRAL MEXICO

CITY           SKY/WX    TMP DP  RH WIND       PRES   REMARKS
CUERNAVACA     MOCLDY    66  64  94 MISG      30.15S
MEXICO CITY    MOCLDY    59  48  67 NE7       30.36
POZA RICA      PTSUNNY   72  72 100 CALM      30.01R FOG
PUEBLA         CLOUDY    54  50  87 NW7       30.34F
QUERETARO      MOCLDY    54  52  94 CALM      30.34R
S. LUIS POTOSI CLEAR     52  48  87 CALM      30.29R
TAMPICO        PTCLDY    77  73  88 W3        29.98R
TOLUCA         MOCLDY    50  48  93 CALM      30.40R FOG
VERACRUZ       PTSUNNY   73  73 100 NW3       29.94R

SOUTHERN MEXICO

CITY           SKY/WX    TMP DP  RH WIND       PRES   REMARKS
ACAPULCO       MOCLDY    81  73  78 NW6       29.84S
B. DE HUATULCO MOSUNNY   73  59  60 CALM      29.92S
MINATITLAN     MOSUNNY   75  68  78 CALM      29.88
OAXACA         CLOUDY    64  59  82 N6        30.21R
PTO. ESCONDIDO MOCLDY   N/A N/A N/A CALM        N/A
TAPACHULA      PTSUNNY   77  75  94 CALM      29.84R
TUX. GUTIERREZ PTSUNNY   72  68  88 W2        29.97
VILLAHERMOSA   CLOUDY    75  75 100 CALM      29.96  FOG
ZIHUATANEJO    PTCLDY    77  72  83 CALM      29.86S

YUCATAN PENINSULA

CITY           SKY/WX    TMP DP  RH WIND       PRES   REMARKS
CAMPECHE       MOSUNNY   73  73 100 CALM      29.95
CANCUN         MOSUNNY   86  79  79 E7        29.96R HX  99
CHETUMAL       MOSUNNY   75  64  69 CALM      29.95
C. DEL CARMEN  CLOUDY    79  73  83 E7        29.95
COZUMEL        MOSUNNY   79  77  94 E3        29.95R
MERIDA         PTSUNNY   75  73  94 CALM      29.98R

$$



USA.gov is the U.S. government's official web portal to all federal, state and local government web resources and services.